GEOSCAN 4 (RS92S4)

Last updated on Sun Jun 21 2026 00:03:20 GMT+0000 (Coordinated Universal Time)

1 64892U 25155S 26171.38963691 .00012558 00000+0 38997-3 0 9998 2 64892 97.4552 140.8647 0007255 152.3865 207.7764 15.33485322 81314
UTC large
Height (km)
Speed (km/s)
/
Latitude / Longitude
Inclination (degrees)
Orbital Period (minutes)
Azimuth
Elevation
Range (km)
Doppler Factor

Next 0 passes for location: London (51.5072 / 0.1276)

No passes found over London.
GEOSCAN 4 (RS92S4)